Location: Detroit
(42.3310°N, 83.0460°W)
Time: 16:26:48
(UTC-05:00)

X-37B - Pass Details

Date: 08 December 2021
Orbit: 331 x 339 km, 45.0° (Epoch: 27 January)

Event Time Altitude Azimuth Distance (km) Brightness Sun altitude
Rises 18:37:36 0° 250° (WSW) 2,094 6.0 -17.5°
Reaches altitude 10° 18:39:36 10° 250° (WSW) 1,259 4.5 -17.8°
Enters shadow 18:42:19 83° 231° (SW) 338 0.2 -18.3°
